Location: Newark
(45.8667°N, 9.7333°E)
Time: 05:52:10
(UTC+00:00)

Vanguard 3 - Pass Details

Date: 28 January 2020
Orbit: 508 x 3263 km, 33.3° (Epoch: 27 February)

Event Time Altitude Azimuth Distance (km) Brightness Sun altitude
Rises 16:30:50 0° 239° (WSW) 6,771 14.6 -2.5°
Reaches altitude 10° 16:35:15 10° 235° (SW) 5,960 13.3 -3.3°
Maximum altitude 16:53:39 51° 167° (SSE) 3,744 10.6 -6.2°
Drops below altitude 10° 17:09:54 10° 99° (E) 5,335 10.8 -8.9°
Enters shadow 17:11:39 - 97° (E) 5,665 10.9 -9.2°
Sets 17:13:35 0° 95° (E) 6,049 - -9.5°
